AddedLatest Added eBooks:

  1. 2021-06-10OK! Magazine USA June 14, 2021
  2. 2021-06-10RuPauls Drag Race Down Under S01E06 1080p HEVC x265
  3. 2021-06-10VA Club Sounds Summer 2021 (3CD)(2021)
  4. 2021-06-10Meine Familie & Ich Nr.6, 2021
  5. 2021-06-10Various Artists Sensual Delights (2021)
  6. 2021-06-10Kids Say the Darndest Things 2019 S02E10 1080p HEVC x265
  7. 2021-06-10Neil Seda Hit Collection (2021)
  8. 2021-06-10Van Helsing S05E08 720p HEVC x265
  9. 2021-06-10Earthmovers July 2021
  10. 2021-06-10Brian Coxs Adventures in Space and Time S01E02 Aliens Are We Alone 720p HEVC x265
  11. 2021-06-10SPORTaktiv Juni/Juli 2021
  12. 2021-06-10Celebrity Family Feud 2015 S06E09 720p HEVC x265
  13. 2021-06-10Summertime S01E04 720p HEVC x265
  14. 2021-06-10The Chi S04E03 720p HEVC x265
  15. 2021-06-10VA Apéro Bossa (2021)
  16. 2021-06-1060 Minutes S53E38 720p HEVC x265
  17. 2021-06-10Bobby Vee BOBBY VEE ULTIMATE HITS COLLECTION (Digitally Remastered) (2021)
  18. 2021-06-10Midsomer Murders S03E01 720p HEVC x265
  19. 2021-06-10Various Artists Follow the Light (Beautiful Chill out Tunes) Vol. 2 (2021)
  20. 2021-06-10Naked and Afraid XL S07E07 720p HEVC x265
  21. 2021-06-10Lego Masters US S02E01 1080p HEVC x265
  22. 2021-06-10In Treatment S04E11 720p HEVC x265
  23. 2021-06-10Andy Williams Andy Williams The Ultimate Hits Collection (Digitally Remastered) (2021)
  24. 2021-06-10Midsomer Murders S05E04 720p HEVC x265
  25. 2021-06-10MAMAMOO WAW (2021) Mp3 320kbps
  26. 2021-06-10Sélection Reader's Digest France Juin 2021
  27. 2021-06-10Various Artists Poolside Jazz (Smooth Lounge Vibes For Summer) (2021)
  28. 2021-06-10Mountain Biking UK Summer 2021
  29. 2021-06-10VA Baroque Masterpieces [60CD Box Set] (2008) MP3
  30. 2021-06-10Ernie K Doe You Got to Love Me the Grea Hits Collection (2021)
  31. 2021-06-10My Lottery Dream Home S10E05 Million Dollar Wonderland 720p HEVC x265
  32. 2021-06-10No Demo Reno S01E03 Goodbye Beige 1080p HEVC x265
  33. 2021-06-10VA Capital Gold Rock Legends (2002) (CD Rip)
  34. 2021-06-10Midsomer Murders S06E02 720p HEVC x265
  35. 2021-06-10Marvel Studios Legends S01E08 720p HEVC x265
  36. 2021-06-10VA The First Summer of Love: 45 Classic Hits from the Sixties (1997) MP3
  37. 2021-06-10My Hero Academia S05E10 720p HEVC x265
  38. 2021-06-10Midsomer Murders S13E02 720p HEVC x265
  39. 2021-06-10Woman's Day New Zealand June 17, 2021
  40. 2021-06-10Fats Domino Classic Hits Vol. 1 (2021)
  41. 2021-06-10Lets Make A Deal 2009 S12E129 1080p HEVC x265
  42. 2021-06-10Somebody's Daughter: A Memoir [Audiobook]
  43. 2021-06-10Various Artists Tokyo Body Building Hits 2021 Workout Compilation (2021)
  44. 2021-06-10Sweet Tooth S01E02 1080p HEVC x265
  45. 2021-06-10Midsomer Murders S02E04 720p HEVC x265
  46. 2021-06-10How Not to Summon a Demon Lord S02E10 720p HEVC x265-MeGusta
  47. 2021-06-10Summertime S02E04 720p HEVC x265
  48. 2021-06-10l'Ami des Jardins Hors Série n°221, 03 juin 2021
  49. 2021-06-10Burning Kabaddi S01E10 1080p HEVC x265
  50. 2021-06-10VA Heart & Soul Of R&B (2020)
  51. 2021-06-10Sweet Tooth S01E04 1080p HEVC x265
  52. 2021-06-10VA Schumann Great Recordings (2021)
  53. 2021-06-10Batwoman S02E15 720p HEVC x265
  54. 2021-06-10Midsomer Murders S06E01 720p HEVC x265
  55. 2021-06-10Various Artists Mega Step Experience 2021 Session (Fitness Version 132 Bpm) (2021)
  56. 2021-06-10Americas Got Talent S16E01 1080p HEVC x265
  57. 2021-06-10Australian Healthy Food Guide July 2021
  58. 2021-06-10Top Santé UK July 2021
  59. 2021-06-10Casualty S35E24 1080p HEVC x265
  60. 2021-06-10Total Carp June 2021
  61. 2021-06-10VA Late 60s Heavy Rock Deep Cuts (2018)
  62. 2021-06-10Save My Skin S02E02 Never Been Cyst 1080p HEVC x265
  63. 2021-06-10Woman's World USA June 14, 2021
  64. 2021-06-10Cloud Computing, Tricks And Tips 6nd Edition 2021
  65. 2021-06-10British GQ July 2021
  66. 2021-06-10VA 100 Greatest Alternative 70s (2021)
  67. 2021-06-10VA 00's Teen Party (2021)
  68. 2021-06-10Beat Shazam S04E01 1080p HEVC x265
  69. 2021-06-10Pratique Santé Spécial Memoire Mai Juillet 2021
  70. 2021-06-10Star Système 18 juin 2021
  71. 2021-06-10Current World Archaeology Issue 42, 2020
  72. 2021-06-10Financial Times Magazine June 5,6 2021
  73. 2021-06-10Various Artists Ultra Flat Abs Techno Hits 2021 Fitness Compilation (2021)
  74. 2021-06-10Current Archaeology Issue 286, 2014
  75. 2021-06-10Gold Rush Dave Turins Lost Mine S03E13 Arizona Crush 720p HEVC x265
  76. 2021-06-10VA Romantic Italian Songs (2015)
  77. 2021-06-10United States of Al S01E10 1080p HEVC x265
  78. 2021-06-10The Good Doctor S04E20 720p HEVC x265
  79. 2021-06-10Warrior Women with Lucy Lawless S01E02 720p HEVC x265
  80. 2021-06-10Those Snow White Notes S01E10 1080p HEVC x265
  81. 2021-06-10Christina on the Coast S04E01 Heartfelt Hacienda Makeover 1080p HEVC x265
  82. 2021-06-10The Hills New Beginnings S02E04 1080p HEVC x265
  83. 2021-06-10All In with Chris Hayes 2021 06 03 1080p WEBRip x265 HEVC LM
  84. 2021-06-10Profi International July 2021 (True PDF)
  85. 2021-06-10Big Trick Energy S01E07 1080p HEVC x265
  86. 2021-06-10Mollie Makes Germany Nr.62, 2021
  87. 2021-06-10VA 100 Dark Classical Masterpieces (2015)
  88. 2021-06-10The Masked Dancer UK S01E06 720p HEVC x265
  89. 2021-06-10Summertime S02E06 720p HEVC x265
  90. 2021-06-10Closer USA June 14, 2021
  91. 2021-06-10Japanology Plus S04E06 Furoshiki Wrapping Cloths 1080p HEVC x265
  92. 2021-06-10Motherland S03E04 1080p HEVC x265
  93. 2021-06-10What Hifi France juin 2021
  94. 2021-06-10VA THIS is the 90's (2017)
  95. 2021-06-10Aspire Design And Home June 2021
  96. 2021-06-10American Miniaturist June 2021
  97. 2021-06-10Mysteries of the Universe Our Solar System S02E04 The Grand Tour 1080p HEVC x265
  98. 2021-06-10The Girlfriend Experience S03E07 1080p HEVC x265
  99. 2021-06-10BACK ARROW S01E22 1080p HEVC x265

More eBooks ...

47936 pages, 4793515 eBooks in total, list all pages->

Search free ebooks in ebookee.com!
Back to Top